Location: Arthurs Seat
(13.1500°N, 59.6000°W)
Time: 07:45:18
(UTC+00:00)

Envisat - Visible Passes

Search period start: 12 November 2019 00:00
Search period end: 22 November 2019 00:00
Orbit: 764 x 766 km, 98.1° (Epoch: 12 November)

Date Brightness Start Highest point End Pass type
(mag) Time Alt. Az. Time Alt. Az. Time Alt. Az.
12 Nov 5.3 23:09:28 10° SSW 23:13:26 23° W 23:17:25 10° NW visible
13 Nov 3.4 22:31:40 10° S 22:36:42 65° WSW 22:41:43 10° NNW visible
14 Nov 3.3 21:55:14 10° SSE 22:00:02 44° ENE 22:04:50 10° N visible
14 Nov 6.2 23:37:43 10° WSW 23:38:57 11° W 23:40:10 10° W visible
15 Nov 4.8 22:57:42 10° SSW 23:02:10 31° W 23:06:37 10° NW visible
16 Nov 3.0 22:20:22 10° SSE 22:25:27 88° WSW 22:30:32 10° NNW visible
17 Nov 3.6 21:44:19 10° SE 21:48:49 33° ENE 21:53:18 10° NNE visible
17 Nov 5.9 23:24:47 10° SW 23:27:40 15° W 23:30:33 10° WNW visible
18 Nov 4.3 22:46:08 10° S 22:50:54 42° W 22:55:41 10° NNW visible
19 Nov 6.2 09:33:05 10° ENE 09:35:56 15° E 09:38:46 10° SE visible
19 Nov 2.9 22:09:10 10° SSE 22:14:12 68° ENE 22:19:14 10° N visible
20 Nov 5.5 23:12:40 10° SSW 23:16:23 21° W 23:20:07 10° NW visible
21 Nov 3.6 22:34:40 10° S 22:39:38 58° W 22:44:37 10° NNW visible
